This is the latest recevied weather packets stored in our database for station/object Ummendorf. If no packets are shown the sender has not sent any weather packets the latest 10 day(s).
| Time | Temp. | Humidity | Pressure | Rain* | Wind** | Luminosity | Snow |
|---|---|---|---|---|---|---|---|
| 1787758331 | 28.33° C | 38% | 1014.8 hPa | 0 mm | - | - | - |
| 1787756530 | 28.89° C | 37% | 1015.1 hPa | 0 mm | - | - | - |
| 1787754731 | 28.89° C | 38% | 1015.7 hPa | 0 mm | - | - | - |
| 1787752930 | 28.89° C | 38% | 1016.1 hPa | 0 mm | - | - | - |
| 1787751131 | 28.89° C | 40% | 1016.3 hPa | 0 mm | - | - | - |
| 1787749330 | 28.33° C | 43% | 1016.5 hPa | 0 mm | - | - | - |
| 1787747533 | 28.33° C | 42% | 1016.7 hPa | 0 mm | - | - | - |
| 1787745730 | 27.22° C | 43% | 1016.6 hPa | 0 mm | - | - | - |
| 1787743931 | 26.67° C | 44% | 1016.7 hPa | 0 mm | - | - | - |
| 1787742134 | 26.11° C | 52% | 1017 hPa | 0 mm | - | - | - |
| 1787740330 | 25° C | 54% | 1017.4 hPa | 0 mm | - | - | - |
| 1787738530 | 24.44° C | 56% | 1017.6 hPa | 0 mm | - | - | - |
| 1787736730 | 22.78° C | 62% | 1017.8 hPa | 0 mm | - | - | - |
| 1787734930 | 21.67° C | 66% | 1017.9 hPa | 0 mm | - | - | - |
| 1787733130 | 20° C | 71% | 1017.8 hPa | 0 mm | - | - | - |
| 1787731330 | 18.33° C | 80% | 1017.9 hPa | 0 mm | - | - | - |
| 1787729531 | 17.78° C | 81% | 1017.7 hPa | 0 mm | - | - | - |
| 1787727730 | 16.67° C | 81% | 1017.6 hPa | 0 mm | - | - | - |
| 1787725929 | 16.11° C | 81% | 1017.6 hPa | 0 mm | - | - | - |
| 1787724130 | 15.56° C | 80% | 1017.3 hPa | 0 mm | - | - | - |
| 1787722332 | 15.56° C | 80% | 1017.1 hPa | 0 mm | - | - | - |
| 1787720530 | 15.56° C | 80% | 1017.2 hPa | 0 mm | - | - | - |
| 1787718729 | 15.56° C | 80% | 1017.1 hPa | 0 mm | - | - | - |
* Rain since midnight (hover to see other rain measurements)
** Current wind speed in m/s (hover to see current wind gust speed)